This demonstration page uses our WeatherBlox Daily Observations layout. Learn more.

Left ArrowRight Arrow

39.51506, -84.39828

Hourly Observations for April 30, 2019

Temp ( °F °C ) Dew Point ( °F °C ) Humidity (%) Winds ( mph kmh ) Pressure ( in mb ) Visibility ( mi km ) Precip ( " mm )
12:15 am 00:15 Clear 57 13.7 53 11.7 88 88 NNE 10 17 30.14 1021 10 16 0.00 0.00
12:35 am 00:35 Clear 56 13.3 52 11.3 88 88 N 5 7 30.14 1021 10 16 0.00 0.00
12:55 am 00:55 Clear 55 12.9 52 11 88 88 NNE 5 7 30.16 1021 10 16 0.00 0.00
1:15 am 01:15 Partly Cloudy 55 12.7 51 10.7 88 88 N 5 7 30.16 1021 10 16 0.00 0.00
1:35 am 01:35 Mostly Cloudy 55 12.5 51 10.6 88 88 N 5 7 30.16 1021 10 16 0.00 0.00
1:55 am 01:55 Clear 54 12.1 51 10.3 89 89 N 5 7 30.17 1022 10 16 0.00 0.00
2:15 am 02:15 Mostly Cloudy 53 11.9 51 10.3 90 90 Calm 30.18 1022 10 16 0.00 0.00
2:35 am 02:35 Cloudy 54 12.1 51 10.8 92 92 Calm 30.17 1022 10 16 0.00 0.00
2:55 am 02:55 Cloudy 54 12.3 51 10.7 90 90 NNE 3 6 30.16 1021 10 16 0.00 0.00
3:15 am 03:15 Cloudy 54 12.3 51 10.5 89 89 NNE 6 9 30.16 1021 10 16 0.00 0.00
3:35 am 03:35 Cloudy 54 12.3 51 10.5 89 89 NNE 7 11 30.15 1021 10 16 0.00 0.00
3:55 am 03:55 Cloudy 54 12.3 51 10.4 88 88 NNE 6 9 30.16 1021 10 16 0.00 0.00
4:15 am 04:15 Cloudy 54 12.3 51 10.3 88 88 NNE 5 7 30.17 1022 10 16 0.00 0.00
4:35 am 04:35 Cloudy 54 12.3 51 10.3 88 88 NNE 6 9 30.17 1022 10 16 0.00 0.00
4:55 am 04:55 Cloudy 54 12.1 50 10.2 88 88 N 3 6 30.18 1022 10 16 0.00 0.00
5:15 am 05:15 Cloudy 54 12.1 51 10.3 89 89 N 3 6 30.18 1022 10 16 0.00 0.00
5:35 am 05:35 Cloudy 54 12.1 51 10.4 89 89 NNE 3 6 30.19 1022 10 16 0.00 0.00
5:55 am 05:55 Cloudy 54 12 50 10.1 88 88 NNE 3 6 30.20 1023 10 16 0.00 0.00
6:15 am 06:15 Cloudy 54 12 50 9.8 87 87 NNE 7 11 30.20 1023 10 16 0.00 0.00
6:35 am 06:35 Cloudy 53 11.8 49 9.7 87 87 NNE 7 11 30.21 1023 10 16 0.00 0.00
6:55 am 06:55 Cloudy 53 11.8 49 9.7 87 87 ENE 7 11 30.21 1023 10 16 0.00 0.00
7:15 am 07:15 Cloudy 53 11.8 49 9.6 87 87 NE 6 9 30.21 1023 10 16 0.00 0.00
7:35 am 07:35 Cloudy with Nearby Thunderstorms 53 11.9 49 9.6 86 86 ENE 7 11 30.22 1024 10 16 0.00 0.00
7:55 am 07:55 Cloudy 54 12 49 9.6 85 85 NE 7 11 30.22 1023 10 16 0.00 0.00
8:15 am 08:15 Mostly Cloudy 54 12.3 49 9.6 84 84 ENE 6 9 30.22 1023 10 16 0.00 0.00
8:35 am 08:35 Cloudy 55 12.5 49 9.6 83 83 ENE 7 11 30.22 1023 10 16 0.00 0.00
8:55 am 08:55 Cloudy 55 12.6 50 9.9 84 84 ENE 8 13 30.22 1023 10 16 0.00 0.00
9:15 am 09:15 Cloudy 55 12.9 50 10.1 83 83 NE 7 11 30.22 1023 10 16 0.00 0.00
9:35 am 09:35 Cloudy 55 13 50 10.2 83 83 NE 8 13 30.22 1023 10 16 0.00 0.00
9:55 am 09:55 Cloudy 55 12.9 50 10.1 83 83 ENE 6 9 30.23 1024 10 16 0.00 0.00
10:15 am 10:15 Cloudy 56 13.1 50 10.2 83 83 NE 6 9 30.23 1024 10 16 0.00 0.00
10:35 am 10:35 Cloudy 56 13.3 51 10.3 82 82 ENE 5 7 30.23 1024 10 16 0.00 0.00
10:55 am 10:55 Cloudy 57 13.9 51 10.8 82 82 ENE 6 9 30.23 1024 10 16 0.00 0.00
11:15 am 11:15 Cloudy 58 14.2 51 10.6 79 79 E 6 9 30.23 1024 10 16 0.00 0.00
11:35 am 11:35 Cloudy 57 14.1 51 10.7 80 80 ENE 7 11 30.24 1024 10 16 0.00 0.00
11:55 am 11:55 Cloudy 58 14.5 52 11.1 80 80 ENE 7 11 30.24 1024 10 16 0.00 0.00
12:15 pm 12:15 Cloudy 58 14.3 52 11 81 81 NE 8 13 30.25 1024 10 16 0.00 0.00
12:35 pm 12:35 Cloudy with Light Rain 58 14.2 53 11.4 83 83 NNE 10 17 30.24 1024 7 11 0.00 0.00
12:55 pm 12:55 Cloudy 58 14.3 53 11.4 83 83 NE 13 20 30.24 1024 10 16 0.00 0.00
1:15 pm 13:15 Cloudy 59 15.2 53 11.4 78 78 NE 12 19 30.23 1024 10 16 0.00 0.00
1:35 pm 13:35 Cloudy 59 14.8 52 11.2 79 79 ENE 10 17 30.22 1023 10 16 0.00 0.00
1:55 pm 13:55 Cloudy 61 16.1 53 11.6 75 75 ENE 9 15 30.21 1023 10 16 0.00 0.00
2:15 pm 14:15 Partly Cloudy 64 17.5 55 12.6 73 73 E 8 13 30.21 1023 10 16 0.00 0.00
2:35 pm 14:35 Mostly Cloudy 64 17.6 54 12.1 70 70 NE 6 9 30.20 1023 10 16 0.00 0.00
2:55 pm 14:55 Mostly Cloudy 65 18.2 56 13.1 72 72 ENE 8 13 30.19 1022 10 16 0.00 0.00
3:15 pm 15:15 Mostly Cloudy 65 18.6 55 13 70 70 NE 7 11 30.19 1022 10 16 0.00 0.00
3:35 pm 15:35 Mostly Cloudy 65 18.6 55 12.9 70 70 ESE 9 15 30.18 1022 10 16 0.00 0.00
3:55 pm 15:55 Mostly Cloudy 65 18.4 56 13.1 71 71 E 7 11 30.18 1022 10 16 0.00 0.00
4:15 pm 16:15 Partly Cloudy 65 18.6 56 13.2 71 71 E 8 13 30.16 1021 10 16 0.00 0.00
4:35 pm 16:35 Mostly Cloudy 66 18.9 56 13.5 71 71 E 9 15 30.15 1021 10 16 0.00 0.00
4:55 pm 16:55 Mostly Cloudy 66 18.8 56 13.6 72 72 E 8 13 30.14 1021 10 16 0.00 0.00
5:15 pm 17:15 Cloudy 67 19.3 57 13.9 71 71 E 8 13 30.13 1020 10 16 0.00 0.00
5:35 pm 17:35 Sunny 68 20.1 58 14.3 69 69 E 8 13 30.11 1020 10 16 0.00 0.00
5:55 pm 17:55 Sunny 67 19.5 57 14.1 71 71 ENE 8 13 30.12 1020 10 16 0.00 0.00
6:15 pm 18:15 Sunny 69 20.7 59 14.8 69 69 E 6 9 30.10 1019 10 16 0.00 0.00
6:35 pm 18:35 Sunny 68 20.2 59 15.1 73 73 ENE 7 11 30.09 1019 10 16 0.00 0.00
6:55 pm 18:55 Sunny 69 20.5 59 15.2 72 72 ENE 7 11 30.08 1019 10 16 0.00 0.00
7:15 pm 19:15 Sunny 67 19.3 59 14.9 76 76 ENE 7 11 30.09 1019 10 16 0.00 0.00
7:35 pm 19:35 Sunny 66 18.9 59 15.1 79 79 NE 6 9 30.10 1019 10 16 0.00 0.00
7:55 pm 19:55 Sunny 65 18.4 59 15.2 82 82 ENE 6 9 30.09 1019 10 16 0.00 0.00
8:15 pm 20:15 Sunny 64 17.9 59 15 83 83 E 6 9 30.09 1019 10 16 0.00 0.00
8:35 pm 20:35 Clear 63 17.4 59 14.8 85 85 NE 5 7 30.09 1019 10 16 0.00 0.00
8:55 pm 20:55 Clear 63 17.2 58 14.7 85 85 NE 5 7 30.08 1019 10 16 0.00 0.00
9:15 pm 21:15 Clear 63 17 58 14.7 86 86 NE 6 9 30.08 1019 10 16 0.00 0.00
9:35 pm 21:35 Clear 63 17.3 58 14.7 85 85 NNE 5 7 30.08 1019 10 16 0.00 0.00
9:55 pm 21:55 Clear 62 16.5 58 14.5 88 88 NNE 5 7 30.08 1019 10 16 0.00 0.00
10:15 pm 22:15 Clear 61 16 58 14.4 90 90 NNE 5 7 30.08 1019 10 16 0.00 0.00
10:35 pm 22:35 Clear 59 15.2 57 14 93 93 NNE 5 7 30.08 1018 10 16 0.00 0.00
10:55 pm 22:55 Clear 58 14.5 56 13.6 94 94 N 5 7 30.07 1018 10 16 0.00 0.00
11:15 pm 23:15 Clear 58 14.3 56 13.1 93 93 Calm 30.07 1018 10 16 0.00 0.00
11:35 pm 23:35 Clear 57 14.1 56 13.5 96 96 N 5 7 30.06 1018 10 16 0.00 0.00
11:55 pm 23:55 Clear 58 14.2 56 13.6 96 96 NNE 3 6 30.05 1018 10 16 0.00 0.00

Powered by AerisWeather